Regional Weather Roundup
Issued by NWS State College, PA

Home | Current Version | Previous Version | Text Only | Print | Product List | Glossary On
Versions: 1 2 3 4 5 6 7 8 9 10 11 12 13 14 15 16 17 18 19 20 21 22 23 24 25 26 27 28 29 30 31 32 33 34 35 36 37 38 39 40 41 42 43 44 45 46 47 48 49 50
000
ASUS41 KCTP 220610
RWRCTP

REGIONAL WEATHER ROUNDUP
NATIONAL WEATHER SERVICE STATE COLLEGE PA
100 AM EST MON DEC 22 2014

Note: "fair" indicates few or no clouds below 12,000 feet with no
significant weather and/or obstructions to visibility.

* = STATION THAT DOES NOT REPORT PRECIPITATION /E.G. RAIN...SNOW...ETC/
    THUNDER OR FOG.

PAZ002>004-007>009-013>016-020>023-029>032-220700-
WESTERN PENNSYLVANIA

CITY           SKY/WX    TMP DP  RH WIND       PRES   REMARKS
ERIE           CLEAR     30  21  69 E5        30.21F
MEADVILLE      CLEAR     26  20  77 E6        30.15F
FRANKLIN*      CLEAR     23  18  80 E6        30.18F
NEW CASTLE       N/A     24  21  88 CALM      30.18F
BEAVER COUNTY  NOT AVBL
BUTLER*        CLEAR     25  19  80 NE7       30.18F
PITTSBURGH INT PTCLDY    26  22  84 E3        30.15F
PITTSBURGH     CLEAR     25  19  78 E3        30.15F
INDIANA*       CLEAR     27  21  80 E6        30.21F
LATROBE        CLEAR     32  25  74 CALM      30.19F
WASHINGTON CO* NOT AVBL
$$

PAZ004>006-010>012-017>019-024>028-033>037-041-042-045-046-049>053-220700-
CENTRAL PENNSYLVANIA

CITY           SKY/WX    TMP DP  RH WIND       PRES   REMARKS
BRADFORD       CLOUDY    23  19  85 SE7       30.18F WCI  15
DUBOIS         CLEAR     20  18  92 E7        30.17F WCI  11
CLEARFIELD     CLEAR     21  19  92 NE7       30.22F WCI  12
JOHNSTOWN      CLEAR     23  17  78 S8        30.15F WCI  14
ALTOONA        CLEAR     22  19  89 CALM      30.23F
STATE COLLEGE  PTCLDY    23  20  91 CALM      30.25F
WILLIAMSPORT   CLEAR     22  17  81 CALM      30.32F
SELINSGROVE    CLEAR     20  18  92 CALM      30.32F FOG
FT INDIANTOWN  CLEAR     19  17  91 N1        30.31F
CAPITAL CITY   CLEAR     23  19  85 CALM      30.32F
HARRISBURG     PTCLDY    22  19  89 CALM      30.31F
YORK           CLEAR     18  16  92 CALM      30.31S FOG
$$

PAZ038>040-043-044-047-048-054-055-060>062-067>071-220700-
EASTERN PENNSYLVANIA

CITY           SKY/WX    TMP DP  RH WIND       PRES   REMARKS
SCRANTON       CLOUDY    30  22  72 CALM      30.28F
MOUNT POCONO   CLOUDY    27  21  78 E5        30.22F
ALLENTOWN      CLOUDY    30  22  72 CALM      30.32F
QUAKERTOWN*    CLOUDY    27  25  93 CALM      30.31F
READING        CLEAR     23  19  85 N3        30.31F
LANCASTER      CLEAR     22  17  81 CALM      30.30F HAZE
COATESVILLE    CLEAR     27  23  86 CALM      30.30S
POTTSTOWN      MOCLDY    21  18  88 CALM      30.32F
BLUE BELL      MOCLDY    28  27  93 CALM      30.30F
DOYLESTOWN     CLOUDY    30  25  81 CALM      30.30F
WILLOW GROVE   NOT AVBL
NORTH PHILA    CLOUDY    32  22  66 CALM      30.33F
PHILADELPHIA   PTCLDY    29  21  72 N3        30.32F
$$


USA.gov is the U.S. government's official web portal to all federal, state and local government web resources and services.